Time,TemperatureF,DewpointF,PressureIn,WindDirection,WindDirectionDegrees,WindSpeedMPH,WindSpeedGustMPH,Humidity,HourlyPrecipIn,Conditions,Clouds,dailyrainin,SoftwareType,DateUTC
2013-02-05 00:11:00,31.0,23.0,29.93,NNE,30,4.0,7.0,70,-99.99,,,-99.99,,2013-02-05 06:11:00,
2013-02-05 00:21:00,31.0,23.0,29.93,NNE,30,4.0,7.0,70,-99.99,,,-99.99,,2013-02-05 06:21:00,
2013-02-05 00:32:00,31.0,23.0,29.94,NE,40,4.0,8.0,70,-99.99,,,-99.99,,2013-02-05 06:32:00,
2013-02-05 00:42:00,31.0,22.0,29.94,NNE,30,4.0,7.0,70,-99.99,,,-99.99,,2013-02-05 06:42:00,
2013-02-05 00:51:00,31.0,22.0,29.94,NNE,30,4.0,7.0,70,-99.99,,,-99.99,,2013-02-05 06:51:00,
2013-02-05 01:01:00,31.0,23.0,29.93,NE,50,4.0,7.0,71,-99.99,,,-99.99,,2013-02-05 07:01:00,
2013-02-05 01:11:00,31.0,22.0,29.93,ENE,60,3.0,7.0,70,-99.99,,,-99.99,,2013-02-05 07:11:00,
2013-02-05 01:22:00,31.0,22.0,29.93,ENE,60,3.0,7.0,70,-99.99,,,-99.99,,2013-02-05 07:22:00,
2013-02-05 01:32:00,30.0,22.0,29.91,East,90,1.0,3.0,73,-99.99,,,-99.99,,2013-02-05 07:32:00,
2013-02-05 01:42:00,30.0,22.0,29.91,East,90,1.0,3.0,73,-99.99,,,-99.99,,2013-02-05 07:42:00,
2013-02-05 01:52:00,30.0,22.0,29.91,East,90,1.0,3.0,73,-99.99,,,-99.99,,2013-02-05 07:52:00,
2013-02-05 02:01:00,29.0,22.0,29.91,East,90,0.0,1.0,74,-99.99,,,-99.99,,2013-02-05 08:01:00,
2013-02-05 02:11:00,29.0,22.0,29.92,NW,305,0.0,1.0,74,-99.99,,,-99.99,,2013-02-05 08:11:00,
2013-02-05 02:21:00,29.0,22.0,29.92,NW,305,0.0,1.0,74,-99.99,,,-99.99,,2013-02-05 08:21:00,
2013-02-05 02:31:00,29.0,22.0,29.92,WSW,240,0.0,0.0,75,-99.99,,,-99.99,,2013-02-05 08:31:00,
2013-02-05 02:41:00,29.0,22.0,29.92,WSW,240,0.0,0.0,76,-99.99,,,-99.99,,2013-02-05 08:41:00,
2013-02-05 02:52:00,29.0,22.0,29.92,WSW,240,0.0,0.0,76,-99.99,,,-99.99,,2013-02-05 08:52:00,
2013-02-05 03:02:00,29.0,22.0,29.91,South,190,2.0,2.0,76,-99.99,,,-99.99,,2013-02-05 09:02:00,
2013-02-05 03:11:00,28.0,22.0,29.91,SSW,195,0.0,2.0,76,-99.99,,,-99.99,,2013-02-05 09:11:00,
2013-02-05 03:21:00,28.0,22.0,29.91,SSW,195,0.0,2.0,76,-99.99,,,-99.99,,2013-02-05 09:21:00,
2013-02-05 03:32:00,28.0,22.0,29.91,West,260,0.0,0.0,78,-99.99,,,-99.99,,2013-02-05 09:32:00,
2013-02-05 03:42:00,28.0,22.0,29.91,West,260,0.0,0.0,77,-99.99,,,-99.99,,2013-02-05 09:42:00,
2013-02-05 03:51:00,28.0,22.0,29.91,West,260,0.0,0.0,77,-99.99,,,-99.99,,2013-02-05 09:51:00,
2013-02-05 04:02:00,28.0,22.0,29.91,ENE,60,0.0,0.0,77,-99.99,,,-99.99,,2013-02-05 10:02:00,
2013-02-05 04:11:00,28.0,22.0,29.91,NE,55,0.0,1.0,77,-99.99,,,-99.99,,2013-02-05 10:11:00,
2013-02-05 04:21:00,28.0,22.0,29.91,NE,55,0.0,1.0,77,-99.99,,,-99.99,,2013-02-05 10:21:00,
2013-02-05 04:32:00,28.0,22.0,29.91,SW,215,0.0,1.0,78,-99.99,,,-99.99,,2013-02-05 10:32:00,
2013-02-05 04:42:00,28.0,22.0,29.91,SW,230,2.0,3.0,78,-99.99,,,-99.99,,2013-02-05 10:42:00,
2013-02-05 04:52:00,28.0,22.0,29.91,SW,230,2.0,3.0,78,-99.99,,,-99.99,,2013-02-05 10:52:00,
2013-02-05 05:01:00,29.0,23.0,29.91,East,90,0.0,4.0,78,-99.99,,,-99.99,,2013-02-05 11:01:00,
2013-02-05 05:11:00,29.0,23.0,29.92,NW,315,1.0,3.0,78,-99.99,,,-99.99,,2013-02-05 11:11:00,
2013-02-05 05:22:00,29.0,23.0,29.92,NW,315,1.0,3.0,78,-99.99,,,-99.99,,2013-02-05 11:22:00,
2013-02-05 05:32:00,29.0,23.0,29.92,South,180,1.0,1.0,77,-99.99,,,-99.99,,2013-02-05 11:32:00,
2013-02-05 05:42:00,29.0,23.0,29.92,SSW,210,2.0,2.0,77,-99.99,,,-99.99,,2013-02-05 11:42:00,
2013-02-05 05:52:00,29.0,23.0,29.92,SSW,210,2.0,2.0,77,-99.99,,,-99.99,,2013-02-05 11:52:00,
2013-02-05 06:01:00,29.0,23.0,29.92,SW,215,1.0,2.0,77,-99.99,,,-99.99,,2013-02-05 12:01:00,
2013-02-05 06:12:00,29.0,23.0,29.91,SSW,205,2.0,4.0,77,-99.99,,,-99.99,,2013-02-05 12:12:00,
2013-02-05 06:22:00,29.0,23.0,29.91,SSW,205,2.0,4.0,77,-99.99,,,-99.99,,2013-02-05 12:22:00,
2013-02-05 06:32:00,29.0,23.0,29.91,SW,215,2.0,3.0,77,-99.99,,,-99.99,,2013-02-05 12:32:00,
2013-02-05 06:42:00,29.0,23.0,29.91,SSW,200,2.0,4.0,77,-99.99,,,-99.99,,2013-02-05 12:42:00,
2013-02-05 06:52:00,29.0,23.0,29.91,SSW,200,2.0,4.0,77,-99.99,,,-99.99,,2013-02-05 12:52:00,
2013-02-05 07:01:00,29.0,23.0,29.89,SW,230,3.0,6.0,77,-99.99,,,-99.99,,2013-02-05 13:01:00,
2013-02-05 07:12:00,29.0,23.0,29.90,South,190,3.0,5.0,77,-99.99,,,-99.99,,2013-02-05 13:12:00,
2013-02-05 07:22:00,29.0,23.0,29.90,South,190,3.0,5.0,77,-99.99,,,-99.99,,2013-02-05 13:22:00,
2013-02-05 07:32:00,29.0,23.0,29.90,East,90,2.0,7.0,77,-99.99,,,-99.99,,2013-02-05 13:32:00,
2013-02-05 07:42:00,29.0,23.0,29.90,SW,225,2.0,4.0,77,-99.99,,,-99.99,,2013-02-05 13:42:00,
2013-02-05 07:52:00,29.0,23.0,29.90,SW,225,2.0,4.0,77,-99.99,,,-99.99,,2013-02-05 13:52:00,
2013-02-05 08:01:00,29.0,23.0,29.91,WSW,240,2.0,3.0,78,-99.99,,,-99.99,,2013-02-05 14:01:00,
2013-02-05 08:12:00,29.0,23.0,29.91,SSW,200,1.0,4.0,79,-99.99,,,-99.99,,2013-02-05 14:12:00,
2013-02-05 08:21:00,29.0,23.0,29.91,SSW,200,1.0,4.0,79,-99.99,,,-99.99,,2013-02-05 14:21:00,
2013-02-05 08:32:00,29.0,24.0,29.91,SW,225,4.0,6.0,79,-99.99,,,-99.99,,2013-02-05 14:32:00,
2013-02-05 08:42:00,30.0,24.0,29.92,SW,235,4.0,6.0,79,-99.99,,,-99.99,,2013-02-05 14:42:00,
2013-02-05 08:52:00,30.0,24.0,29.92,SW,235,4.0,6.0,79,-99.99,,,-99.99,,2013-02-05 14:52:00,
2013-02-05 09:02:00,30.0,24.0,29.92,SSW,205,5.0,9.0,78,-99.99,,,-99.99,,2013-02-05 15:02:00,
2013-02-05 09:11:00,31.0,24.0,29.92,SSW,210,4.0,7.0,77,-99.99,,,-99.99,,2013-02-05 15:11:00,
2013-02-05 09:21:00,31.0,24.0,29.92,SSW,210,4.0,7.0,77,-99.99,,,-99.99,,2013-02-05 15:21:00,
2013-02-05 09:32:00,32.0,25.0,29.92,SSW,210,6.0,11.0,76,-99.99,,,-99.99,,2013-02-05 15:32:00,
2013-02-05 09:42:00,32.0,25.0,29.92,SW,215,7.0,15.0,76,-99.99,,,-99.99,,2013-02-05 15:42:00,
2013-02-05 09:52:00,32.0,25.0,29.92,SW,215,7.0,15.0,76,-99.99,,,-99.99,,2013-02-05 15:52:00,
2013-02-05 10:01:00,33.0,25.0,29.92,SSW,210,7.0,12.0,73,-99.99,,,-99.99,,2013-02-05 16:01:00,
2013-02-05 10:11:00,34.0,26.0,29.92,SW,220,5.0,12.0,72,-99.99,,,-99.99,,2013-02-05 16:11:00,
2013-02-05 10:22:00,34.0,26.0,29.92,SW,220,5.0,12.0,72,-99.99,,,-99.99,,2013-02-05 16:22:00,
2013-02-05 10:32:00,35.0,26.0,29.92,SW,230,7.0,10.0,69,-99.99,,,-99.99,,2013-02-05 16:32:00,
2013-02-05 10:42:00,35.0,26.0,29.92,SW,215,7.0,10.0,68,-99.99,,,-99.99,,2013-02-05 16:42:00,
2013-02-05 10:52:00,36.0,26.0,29.92,SW,230,5.0,9.0,66,-99.99,,,-99.99,,2013-02-05 16:52:00,
2013-02-05 11:00:00,41.0,28.0,29.90,SW,225,5.0,11.0,59,-99.99,,,-99.99,,2013-02-05 17:00:00,
2013-02-05 11:01:00,36.0,26.0,29.92,SW,230,5.0,9.0,66,-99.99,,,-99.99,,2013-02-05 17:01:00,
2013-02-05 11:11:00,38.0,28.0,29.92,SW,220,3.0,7.0,65,-99.99,,,-99.99,,2013-02-05 17:11:00,
2013-02-05 11:22:00,38.0,28.0,29.92,SW,220,3.0,7.0,65,-99.99,,,-99.99,,2013-02-05 17:22:00,
2013-02-05 11:32:00,40.0,28.0,29.91,SW,230,4.0,11.0,61,-99.99,,,-99.99,,2013-02-05 17:32:00,
2013-02-05 11:42:00,41.0,28.0,29.90,SW,225,5.0,11.0,59,-99.99,,,-99.99,,2013-02-05 17:42:00,
2013-02-05 11:52:00,41.0,28.0,29.90,SW,225,5.0,11.0,59,-99.99,,,-99.99,,2013-02-05 17:52:00,
2013-02-05 12:11:00,45.0,29.0,29.91,West,260,3.0,6.0,53,-99.99,,,-99.99,,2013-02-05 18:11:00,
2013-02-05 12:20:00,49.0,29.0,29.87,NW,315,7.0,14.0,45,-99.99,,,-99.99,,2013-02-05 18:20:00,
2013-02-05 12:22:00,45.0,29.0,29.91,West,260,3.0,6.0,53,-99.99,,,-99.99,,2013-02-05 18:22:00,
2013-02-05 12:32:00,46.0,29.0,29.89,West,280,9.0,17.0,50,-99.99,,,-99.99,,2013-02-05 18:32:00,
2013-02-05 12:42:00,47.0,29.0,29.89,West,275,6.0,13.0,49,-99.99,,,-99.99,,2013-02-05 18:42:00,
2013-02-05 12:52:00,47.0,29.0,29.89,West,275,6.0,13.0,49,-99.99,,,-99.99,,2013-02-05 18:52:00,
2013-02-05 13:02:00,49.0,29.0,29.87,NW,315,7.0,14.0,45,-99.99,,,-99.99,,2013-02-05 19:02:00,
2013-02-05 13:11:00,49.0,29.0,29.87,NW,315,7.0,14.0,45,-99.99,,,-99.99,,2013-02-05 19:11:00,
2013-02-05 13:32:00,53.0,30.0,29.87,NW,320,10.0,17.0,42,-99.99,,,-99.99,,2013-02-05 19:32:00,
2013-02-05 13:42:00,53.0,29.0,29.87,NW,310,16.0,26.0,40,-99.99,,,-99.99,,2013-02-05 19:42:00,
2013-02-05 13:52:00,53.0,29.0,29.87,NW,310,16.0,26.0,40,-99.99,,,-99.99,,2013-02-05 19:52:00,
2013-02-05 14:01:00,53.0,29.0,29.86,WNW,290,13.0,22.0,40,-99.99,,,-99.99,,2013-02-05 20:01:00,
2013-02-05 14:11:00,54.0,30.0,29.86,NW,315,11.0,26.0,40,-99.99,,,-99.99,,2013-02-05 20:11:00,
2013-02-05 14:21:00,54.0,30.0,29.86,NW,315,11.0,26.0,40,-99.99,,,-99.99,,2013-02-05 20:21:00,
2013-02-05 14:32:00,55.0,30.0,29.87,NW,325,6.0,22.0,38,-99.99,,,-99.99,,2013-02-05 20:32:00,
2013-02-05 14:42:00,55.0,29.0,29.87,WNW,295,12.0,20.0,37,-99.99,,,-99.99,,2013-02-05 20:42:00,
2013-02-05 14:52:00,55.0,29.0,29.87,WNW,295,12.0,20.0,37,-99.99,,,-99.99,,2013-02-05 20:52:00,
2013-02-05 15:02:00,57.0,31.0,29.86,WNW,290,8.0,14.0,37,-99.99,,,-99.99,,2013-02-05 21:02:00,
2013-02-05 15:11:00,57.0,30.0,29.86,NW,305,7.0,17.0,36,-99.99,,,-99.99,,2013-02-05 21:11:00,
2013-02-05 15:22:00,57.0,30.0,29.86,NW,305,7.0,17.0,36,-99.99,,,-99.99,,2013-02-05 21:22:00,
2013-02-05 15:32:00,58.0,30.0,29.87,WNW,300,6.0,17.0,35,-99.99,,,-99.99,,2013-02-05 21:32:00,
2013-02-05 15:42:00,57.0,29.0,29.87,NW,320,14.0,26.0,34,-99.99,,,-99.99,,2013-02-05 21:42:00,
2013-02-05 15:52:00,57.0,29.0,29.87,NW,320,14.0,26.0,34,-99.99,,,-99.99,,2013-02-05 21:52:00,
2013-02-05 16:01:00,58.0,29.0,29.88,NNW,330,12.0,21.0,33,-99.99,,,-99.99,,2013-02-05 22:01:00,
2013-02-05 16:11:00,58.0,29.0,29.89,North,0,12.0,21.0,33,-99.99,,,-99.99,,2013-02-05 22:11:00,
2013-02-05 16:21:00,58.0,29.0,29.89,North,0,12.0,21.0,33,-99.99,,,-99.99,,2013-02-05 22:21:00,
2013-02-05 16:32:00,57.0,29.0,29.89,NNW,335,13.0,23.0,35,-99.99,,,-99.99,,2013-02-05 22:32:00,
2013-02-05 16:42:00,57.0,30.0,29.90,NW,320,10.0,21.0,35,-99.99,,,-99.99,,2013-02-05 22:42:00,
2013-02-05 16:51:00,57.0,30.0,29.90,NW,320,10.0,21.0,35,-99.99,,,-99.99,,2013-02-05 22:51:00,
2013-02-05 17:02:00,57.0,29.0,29.90,North,0,11.0,21.0,34,-99.99,,,-99.99,,2013-02-05 23:02:00,
2013-02-05 17:11:00,57.0,29.0,29.90,NNW,340,9.0,19.0,34,-99.99,,,-99.99,,2013-02-05 23:11:00,
2013-02-05 17:22:00,57.0,29.0,29.90,NNW,340,9.0,19.0,34,-99.99,,,-99.99,,2013-02-05 23:22:00,
2013-02-05 17:32:00,55.0,28.0,29.91,NW,315,11.0,25.0,35,-99.99,,,-99.99,,2013-02-05 23:32:00,
2013-02-05 17:42:00,55.0,28.0,29.92,North,0,7.0,22.0,35,-99.99,,,-99.99,,2013-02-05 23:42:00,
2013-02-05 17:52:00,55.0,28.0,29.92,North,0,7.0,22.0,35,-99.99,,,-99.99,,2013-02-05 23:52:00,
2013-02-05 18:02:00,54.0,29.0,29.93,NNW,330,10.0,16.0,38,-99.99,,,-99.99,,2013-02-06 00:02:00,
2013-02-05 18:12:00,53.0,29.0,29.93,North,0,7.0,17.0,39,-99.99,,,-99.99,,2013-02-06 00:12:00,
2013-02-05 18:22:00,53.0,29.0,29.93,North,0,7.0,17.0,39,-99.99,,,-99.99,,2013-02-06 00:22:00,
2013-02-05 18:32:00,52.0,29.0,29.94,North,0,5.0,18.0,41,-99.99,,,-99.99,,2013-02-06 00:32:00,
2013-02-05 18:42:00,51.0,30.0,29.95,North,0,8.0,14.0,44,-99.99,,,-99.99,,2013-02-06 00:42:00,
2013-02-05 18:52:00,51.0,30.0,29.95,North,0,8.0,14.0,44,-99.99,,,-99.99,,2013-02-06 00:52:00,
2013-02-05 19:02:00,50.0,30.0,29.96,North,350,8.0,13.0,46,-99.99,,,-99.99,,2013-02-06 01:02:00,
2013-02-05 19:12:00,50.0,29.0,29.97,North,350,7.0,16.0,45,-99.99,,,-99.99,,2013-02-06 01:12:00,
2013-02-05 19:22:00,50.0,29.0,29.97,North,350,7.0,16.0,45,-99.99,,,-99.99,,2013-02-06 01:22:00,
2013-02-05 19:32:00,49.0,30.0,29.98,North,5,6.0,13.0,47,-99.99,,,-99.99,,2013-02-06 01:32:00,
2013-02-05 19:42:00,49.0,30.0,29.98,North,0,6.0,11.0,48,-99.99,,,-99.99,,2013-02-06 01:42:00,
2013-02-05 19:52:00,49.0,30.0,29.98,North,0,6.0,11.0,48,-99.99,,,-99.99,,2013-02-06 01:52:00,
2013-02-05 20:01:00,48.0,30.0,29.99,North,350,3.0,9.0,49,-99.99,,,-99.99,,2013-02-06 02:01:00,
2013-02-05 20:11:00,48.0,30.0,29.99,NW,320,3.0,6.0,50,-99.99,,,-99.99,,2013-02-06 02:11:00,
2013-02-05 20:22:00,48.0,30.0,29.99,NW,320,3.0,6.0,50,-99.99,,,-99.99,,2013-02-06 02:22:00,
2013-02-05 20:32:00,45.0,30.0,30.00,WSW,245,0.0,3.0,54,-99.99,,,-99.99,,2013-02-06 02:32:00,
2013-02-05 20:42:00,46.0,30.0,30.01,NE,50,2.0,3.0,55,-99.99,,,-99.99,,2013-02-06 02:42:00,
2013-02-05 20:52:00,46.0,30.0,30.01,NE,50,2.0,3.0,55,-99.99,,,-99.99,,2013-02-06 02:52:00,
2013-02-05 21:03:00,45.0,30.0,30.02,North,0,2.0,3.0,55,-99.99,,,-99.99,,2013-02-06 03:03:00,
2013-02-05 21:12:00,44.0,30.0,30.02,NNE,25,4.0,5.0,57,-99.99,,,-99.99,,2013-02-06 03:12:00,
2013-02-05 21:22:00,44.0,30.0,30.02,NNE,25,4.0,5.0,57,-99.99,,,-99.99,,2013-02-06 03:22:00,
2013-02-05 21:32:00,44.0,30.0,30.04,NNE,20,3.0,6.0,57,-99.99,,,-99.99,,2013-02-06 03:32:00,
2013-02-05 21:42:00,45.0,30.0,30.04,NE,35,4.0,11.0,57,-99.99,,,-99.99,,2013-02-06 03:42:00,
2013-02-05 21:52:00,45.0,30.0,30.04,NE,35,4.0,11.0,57,-99.99,,,-99.99,,2013-02-06 03:52:00,
2013-02-05 22:02:00,44.0,30.0,30.05,NE,45,9.0,11.0,56,-99.99,,,-99.99,,2013-02-06 04:02:00,
2013-02-05 22:11:00,44.0,30.0,30.06,NE,40,7.0,11.0,57,-99.99,,,-99.99,,2013-02-06 04:11:00,
2013-02-05 22:21:00,44.0,30.0,30.06,NE,40,7.0,11.0,57,-99.99,,,-99.99,,2013-02-06 04:21:00,
2013-02-05 22:32:00,43.0,29.0,30.07,NE,45,5.0,11.0,58,-99.99,,,-99.99,,2013-02-06 04:32:00,
2013-02-05 22:42:00,43.0,29.0,30.08,NE,55,4.0,10.0,59,-99.99,,,-99.99,,2013-02-06 04:42:00,
2013-02-05 22:52:00,43.0,29.0,30.08,NE,55,4.0,10.0,59,-99.99,,,-99.99,,2013-02-06 04:52:00,
2013-02-05 23:02:00,42.0,29.0,30.08,NNE,15,5.0,9.0,60,-99.99,,,-99.99,,2013-02-06 05:02:00,
2013-02-05 23:12:00,41.0,28.0,30.08,NNE,25,5.0,8.0,60,-99.99,,,-99.99,,2013-02-06 05:12:00,
2013-02-05 23:22:00,41.0,28.0,30.08,NNE,25,5.0,8.0,60,-99.99,,,-99.99,,2013-02-06 05:22:00,
2013-02-05 23:32:00,41.0,28.0,30.08,NE,55,3.0,6.0,61,-99.99,,,-99.99,,2013-02-06 05:32:00,
2013-02-05 23:41:00,40.0,28.0,30.09,NE,40,2.0,5.0,62,-99.99,,,-99.99,,2013-02-06 05:41:00,
2013-02-05 23:52:00,40.0,28.0,30.09,NE,40,2.0,5.0,62,-99.99,,,-99.99,,2013-02-06 05:52:00,